Content
SEND FEEDBACK

Daily
Averages
Monthly
Summary
United States of America

LEONARD, TEXAS


Home > North America > United States > Texas
Elevation: 670 feet     Latitude: 33 23N     Longitude: 096 04W

WEATHER
 
SELECT A DAY
Number of Records: 239,258;   Date Range: 1/3/95 - 10/24/14
 
SHARE

PRINT THIS DATA

[ ← Previous Day ]
WEATHER ALMANAC - FEBRUARY 13, 2013
[ Next Day → ]
[ °C ]   °F
Weather ElementAverageHighLow
Temperature43 °F53.6 °F (4:35 pm)37.4 °F (8:55 pm)
Dewpoint35.4 °F39.2 °F (12:35 am)33.8 °F (5:15 am)
Humidity75.9 %93 % (8:55 pm)47 % (4:35 pm)
Barometer30.07 in30.17 in (10:55 am)30.01 in (12:35 am)
Wind Speed7.1 mph18.4 mph (12:35 am)
Wind Gust25.3 mph (12:35 am)
Weather ElementAverage
Visibility10 mi
Wind DirectionWSW (241.8 °)

Weather ElementTotal
Precipitation---
Heating Degree Days19.5 (Base 65)
Averaged from 71 records on February 13, 2013
WEATHER CONDITIONS BREAKOUT
WIND DIRECTION BREAKOUT
WEATHER BY HOUR - FEBRUARY 13, 2013
[ °C ]   °F
Local TimeTemperatureDewpointHumidityBarometerVisibilityWind DirectionWind SpeedGust SpeedPrecipitationEventsConditions
12:35 AM42.8 °F39.2 °F87 %30.01 in10.0 miNW (320°)18.4 mph25.3 mphOvercast
12:55 AM41.0 °F37.4 °F87 %30.01 in10.0 miNW (320°)15.0 mph20.7 mphOvercast
1:15 AM41.0 °F37.4 °F87 %30.02 in10.0 miNW (310°)16.1 mph20.7 mphOvercast
1:35 AM41.0 °F37.4 °F87 %30.02 in10.0 miNW (320°)10.4 mph17.3 mphOvercast
1:55 AM39.2 °F35.6 °F87 %30.02 in10.0 miNW (310°)10.4 mphMostly Cloudy
2:15 AM41.0 °F35.6 °F81 %30.03 in10.0 miNW (320°)13.8 mph21.9 mphMostly Cloudy
2:35 AM41.0 °F35.6 °F81 %30.04 in10.0 miNW (320°)11.5 mphOvercast
2:55 AM41.0 °F35.6 °F81 %30.04 in10.0 miNW (310°)12.7 mph19.6 mphOvercast
3:15 AM41.0 °F35.6 °F81 %30.05 in10.0 miNW (310°)12.7 mph19.6 mphOvercast
3:35 AM41.0 °F35.6 °F81 %30.05 in10.0 miNW (310°)17.3 mph21.9 mphOvercast
3:55 AM41.0 °F35.6 °F81 %30.05 in10.0 miNW (310°)13.8 mphOvercast
4:15 AM41.0 °F35.6 °F81 %30.06 in10.0 miNW (310°)13.8 mph20.7 mphOvercast
4:35 AM41.0 °F35.6 °F81 %30.06 in10.0 miNW (310°)10.4 mph19.6 mphOvercast
4:55 AM41.0 °F35.6 °F81 %30.07 in10.0 miNW (310°)11.5 mphOvercast
5:15 AM39.2 °F33.8 °F81 %30.07 in10.0 miNW (320°)12.7 mph18.4 mphOvercast
5:35 AM39.2 °F35.6 °F87 %30.07 in10.0 miNW (320°)10.4 mph16.1 mphOvercast
5:55 AM39.2 °F35.6 °F87 %30.08 in10.0 miNW (310°)8.1 mphOvercast
6:15 AM39.2 °F35.6 °F87 %30.09 in10.0 miNW (310°)12.7 mph16.1 mphOvercast
6:35 AM39.2 °F33.8 °F81 %30.09 in10.0 miNW (320°)11.5 mph17.3 mphOvercast
6:55 AM39.2 °F35.6 °F87 %30.09 in10.0 miNW (310°)11.5 mphOvercast
7:15 AM39.2 °F35.6 °F87 %30.09 in10.0 miNNW (330°)8.1 mphOvercast
7:35 AM39.2 °F35.6 °F87 %30.10 in10.0 miNW (320°)6.9 mphOvercast
7:55 AM39.2 °F35.6 °F87 %30.10 in10.0 miNW (320°)8.1 mphOvercast
8:15 AM41.0 °F35.6 °F81 %30.12 in10.0 miNW (320°)9.2 mphOvercast
8:35 AM41.0 °F33.8 °F76 %30.13 in10.0 miNW (310°)9.2 mphOvercast
8:55 AM41.0 °F33.8 °F76 %30.14 in10.0 miNW (320°)9.2 mphOvercast
9:15 AM41.0 °F33.8 °F76 %30.14 in10.0 miNW (320°)8.1 mphOvercast
9:35 AM41.0 °F35.6 °F81 %30.15 in10.0 miNNW (340°)8.1 mphOvercast
9:55 AM41.0 °F35.6 °F81 %30.15 in10.0 miNNW (340°)9.2 mphOvercast
10:15 AM41.0 °F35.6 °F81 %30.16 in10.0 miNNW (340°)8.1 mphOvercast
10:35 AM41.0 °F35.6 °F81 %30.16 in10.0 miNW (310°)5.8 mphOvercast
10:55 AM41.0 °F35.6 °F81 %30.17 in10.0 miWNW (290°)6.9 mphOvercast
11:15 AM41.0 °F35.6 °F81 %30.16 in10.0 miWNW (300°)8.1 mphOvercast
11:35 AM42.8 °F35.6 °F76 %30.16 in10.0 miCalmOvercast
11:55 AM42.8 °F35.6 °F76 %30.15 in10.0 miSW (230°)3.5 mphOvercast
12:15 PM44.6 °F35.6 °F71 %30.14 in10.0 miCalmOvercast
12:35 PM44.6 °F35.6 °F71 %30.13 in10.0 miWest (260°)5.8 mphOvercast
12:55 PM44.6 °F35.6 °F71 %30.12 in10.0 miCalmScattered Clouds
1:15 PM44.6 °F35.6 °F71 %30.10 in10.0 miWNW (290°)3.5 mphScattered Clouds
1:35 PM46.4 °F35.6 °F66 %30.09 in10.0 miCalmClear
1:55 PM48.2 °F35.6 °F62 %30.08 in10.0 miCalmClear
2:15 PM50.0 °F35.6 °F58 %30.08 in10.0 miWest (260°)3.5 mphClear
2:35 PM50.0 °F35.6 °F58 %30.07 in10.0 miCalmClear
2:55 PM50.0 °F35.6 °F58 %30.06 in10.0 miWNW (300°)3.5 mphClear
3:15 PM51.8 °F35.6 °F54 %30.06 in10.0 miWSW (250°)5.8 mphClear
3:35 PM51.8 °F35.6 °F54 %30.05 in10.0 miNW (320°)3.5 mphClear
3:55 PM51.8 °F35.6 °F54 %30.05 in10.0 miWest (260°)4.6 mphClear
4:15 PM51.8 °F33.8 °F50 %30.04 in10.0 miWNW (300°)3.5 mphClear
4:35 PM53.6 °F33.8 °F47 %30.04 in10.0 miSW (220°)3.5 mphClear
4:55 PM51.8 °F33.8 °F50 %30.04 in10.0 miWest (260°)5.8 mphClear
5:15 PM51.8 °F33.8 °F50 %30.04 in10.0 miWSW (250°)5.8 mphClear
5:35 PM51.8 °F33.8 °F50 %30.04 in10.0 miSW (220°)5.8 mphClear
5:55 PM50.0 °F33.8 °F54 %30.04 in10.0 miSW (220°)5.8 mphClear
6:15 PM50.0 °F33.8 °F54 %30.04 in10.0 miSSW (200°)4.6 mphClear
6:35 PM46.4 °F33.8 °F62 %30.03 in10.0 miSSE (160°)6.9 mphClear
6:55 PM42.8 °F35.6 °F76 %30.04 in10.0 miSE (140°)4.6 mphClear
7:15 PM41.0 °F35.6 °F81 %30.04 in10.0 miSSE (150°)4.6 mphClear
7:35 PM42.8 °F37.4 °F81 %30.04 in10.0 miSSE (160°)4.6 mphClear
7:55 PM41.0 °F35.6 °F81 %30.04 in10.0 miSSE (160°)3.5 mphClear
8:15 PM42.8 °F37.4 °F81 %30.04 in10.0 miSSE (160°)3.5 mphClear
8:35 PM41.0 °F35.6 °F81 %30.04 in10.0 miSSE (160°)3.5 mphClear
8:55 PM37.4 °F35.6 °F93 %30.05 in10.0 miSSE (150°)3.5 mphClear
9:15 PM37.4 °F35.6 °F93 %30.05 in10.0 miSouth (180°)3.5 mphClear
9:35 PM42.8 °F35.6 °F76 %30.06 in10.0 miSouth (190°)4.6 mphClear
9:55 PM42.8 °F35.6 °F76 %30.06 in10.0 miSouth (180°)4.6 mphClear
10:15 PM41.0 °F35.6 °F81 %30.06 in10.0 miSouth (180°)4.6 mphClear
10:35 PM39.2 °F35.6 °F87 %30.06 in10.0 miSouth (180°)4.6 mphClear
10:55 PM39.2 °F35.6 °F87 %30.06 in10.0 miSouth (190°)5.8 mphClear
11:15 PM37.4 °F33.8 °F87 %30.06 in10.0 miSouth (180°)4.6 mphClear
11:35 PM37.4 °F35.6 °F93 %30.06 in10.0 miSouth (180°)4.6 mphClear
11:55 PM39.2 °F35.6 °F87 %30.06 in10.0 miSouth (190°)4.6 mphClear
Hourly data recorded from KGVT, located miles away from Leonard, Texas







STORIES FROM OUR PARTNERS